Location: L�gaud
(45.7115°N, 1.7775°E)
Time: 07:06:32
(UTC+00:00)

H-2A R/B - Pass Details

Date: 03 March 2021
Orbit: 577 x 655 km, 98.5° (Epoch: 10 April)

Event Time Altitude Azimuth Distance (km) Brightness Sun altitude
Rises 18:31:37 0° 3° (N) 2,806 5.4 -9.4°
Reaches altitude 10° 18:34:01 10° 350° (N) 1,900 4.7 -9.8°
Maximum altitude 18:37:25 26° 294° (WNW) 1,172 4.4 -10.4°
Drops below altitude 10° 18:40:48 10° 238° (WSW) 1,895 5.5 -11.0°
Sets 18:43:12 0° 226° (SW) 2,797 6.1 -11.4°
